SCP
0 0 0 0 0 0 0 0 0 0 0 0 1 1 2 3 4 4 6 8 8 7 5 5 5 4 4 6 7 7 6 5 5 6 5 4 3 2 1 1 1 0 0 0
0 0 0 0 0 0 0 0 0 0 0 0 1 2 2 3 3 3 5 7 7 6 5 5 5 4 3 4 5 5 5 4 5 6 5 4 2 2 1 1 1 0 0 0
0 0 0 0 0 0 0 0 0 0 0 0 1 2 3 3 2 2 4 5 5 4 4 4 4 3 3 3 4 4 4 4 4 5 4 3 2 1 1 1 1 1 0 0
0 0 0 0 0 0 0 0 0 0 0 0 1 1 2 2 2 2 3 3 3 3 3 2 2 2 3 3 3 3 4 4 4 4 4 3 2 1 1 1 1 1 1 0
0 0 0 0 0 0 0 0 0 0 0 0 0 1 2 2 2 2 2 2 2 2 2 2 2 2 2 3 3 3 4 4 3 4 3 3 2 1 1 1 1 1 1 1
0 0 0 0 0 0 0 0 0 0 1 0 0 1 1 2 2 2 2 2 1 2 2 2 2 3 3 3 3 3 4 4 4 3 3 3 2 2 1 1 1 1 1 1
0 0 0 0 0 0 0 0 0 1 1 1 0 1 1 1 1 1 2 1 1 1 2 2 3 3 4 4 4 4 4 4 3 3 3 2 2 2 2 1 1 1 1 1
0 0 0 0 0 0 0 0 0 0 0 0 1 1 1 1 1 1 1 1 1 1 2 2 3 3 4 4 5 6 5 4 4 3 3 2 2 2 2 1 1 1 1 1
0 0 0 0 0 0 0 0 0 0 0 0 0 1 1 1 1 1 1 1 1 1 1 2 3 4 4 4 6 7 6 5 4 4 3 2 2 2 2 1 1 1 1 1
0 0 0 0 0 0 0 0 0 0 0 0 0 1 1 1 1 1 1 1 1 1 1 2 3 4 5 4 5 6 5 4 4 4 3 3 2 2 2 2 1 1 1 1
0 0 0 0 0 0 0 0 0 1 1 0 0 1 1 1 1 1 1 1 1 1 1 2 3 4 5 5 4 4 3 3 3 3 3 3 3 3 3 3 2 2 2 2
0 0 1 1 1 1 1 1 1 1 1 1 1 1 1 1 1 1 1 1 1 1 1 1 2 4 5 4 4 3 3 3 3 3 3 3 3 3 3 3 3 3 2 2
1 1 1 1 1 1 1 1 1 1 1 1 1 1 1 1 1 1 1 1 1 2 2 2 2 3 4 4 3 3 3 2 2 3 3 3 3 3 3 3 3 3 3 3
1 1 1 1 1 1 1 1 1 1 1 1 1 1 1 1 2 2 2 1 2 2 2 2 3 3 3 3 3 3 3 3 3 3 3 4 4 3 3 4 4 3 3 3
2 1 1 1 1 1 1 1 0 0 1 1 1 1 2 2 2 2 2 1 2 2 2 2 3 4 4 4 4 4 4 4 4 4 4 4 4 4 4 4 4 4 3 3
2 2 1 1 1 1 1 0 0 0 1 1 1 2 3 3 3 2 2 2 2 2 3 4 6 6 7 7 6 5 5 5 5 5 4 4 5 5 5 4 4 4 4 4
2 2 2 1 1 1 1 1 1 1 1 1 1 2 3 3 3 3 3 3 4 4 5 7 9 10 9 9 8 7 6 6 6 5 5 5 5 5 5 4 4 4 4 4
2 2 2 2 1 1 1 1 1 1 1 2 2 3 4 4 3 3 3 5 6 7 7 8 9 9 9 9 8 7 6 6 6 6 6 6 6 6 6 5 5 5 5 5
2 2 2 2 1 1 1 1 1 1 1 2 2 3 3 3 3 3 4 6 7 8 8 8 8 8 7 7 7 6 6 6 7 7 7 8 8 7 7 7 6 5 5 5
2 2 2 2 1 1 1 1 1 1 1 2 3 3 3 2 3 3 4 5 6 6 7 7 7 8 8 8 8 8 7 7 8 8 8 9 9 8 8 7 6 6 6 5
2 2 2 1 1 1 1 2 1 1 2 2 2 3 3 3 4 4 5 5 6 6 7 7 8 9 10 10 10 10 10 9 9 9 8 8 9 8 8 8 8 7 6 5
2 2 2 2 2 2 2 2 2 2 2 2 2 2 3 4 5 5 5 6 7 7 8 9 10 9 10 11 11 11 10 9 9 8 7 7 8 8 8 9 9 7 6 5
1 2 2 2 3 3 3 2 2 2 2 2 2 2 3 4 5 5 5 5 5 7 7 8 7 7 7 7 8 7 7 7 7 6 6 7 8 8 8 9 8 6 5 4
1 1 2 2 3 2 2 2 2 2 3 3 3 3 3 3 3 3 3 4 4 4 5 5 4 4 4 4 4 4 4 4 5 5 6 7 8 8 8 8 7 5 4 3
1 1 1 2 2 2 2 2 2 2 3 3 3 3 3 3 3 3 4 4 4 3 3 3 3 3 3 2 2 2 3 3 3 4 5 6 6 6 6 6 5 3 2 2
1 1 1 1 1 1 1 1 2 2 3 3 3 2 2 2 3 4 5 5 4 3 3 3 3 3 3 2 2 2 2 2 3 3 4 4 4 4 4 4 3 2 1 1
Wind_Speed
15 14 13 13 11 10 12 13 13 10 6 7 9 5 5 8 7 8 9 10 11 11 11 9 9 10 11 11 10 9 9 8 6 5 5 4 4 4 4 4 5 4 3 3
16 17 17 16 11 11 13 14 13 10 8 9 10 6 3 6 6 8 9 11 11 12 11 10 10 10 10 10 10 10 10 9 7 5 4 4 4 4 4 4 4 4 4 4
20 17 15 13 12 12 13 12 12 13 13 13 10 4 3 5 7 8 10 11 12 14 14 12 12 11 11 11 11 10 10 10 8 7 5 4 4 2 4 5 4 4 4 3
19 19 17 13 12 14 13 12 12 14 14 11 9 3 4 5 7 9 10 11 13 13 15 14 13 13 13 12 11 10 10 10 8 8 7 8 6 5 5 5 5 5 4 4
18 18 17 16 14 13 14 12 13 15 13 11 9 6 5 7 7 9 10 11 12 13 14 15 14 14 13 14 12 11 10 10 9 8 8 7 6 5 5 5 7 6 5 4
21 18 16 15 13 13 13 13 13 9 6 5 8 7 3 5 7 10 11 12 12 13 13 14 14 14 12 13 13 13 12 10 10 9 8 8 7 5 6 6 7 5 4 4
22 21 18 14 14 14 12 11 7 5 1 5 8 6 2 5 6 9 12 13 13 13 13 14 14 14 14 14 14 14 13 12 11 10 8 8 6 5 6 6 7 6 5 5
18 16 17 17 17 14 12 12 8 8 8 5 2 2 1 6 8 9 12 13 13 13 13 13 14 14 14 14 14 14 14 12 12 10 8 8 7 5 5 6 5 5 3 5
17 15 14 15 16 15 13 11 10 9 12 9 1 1 2 5 5 8 12 13 13 13 14 14 14 14 14 14 13 14 13 12 12 11 9 8 7 6 6 6 5 4 3 5
20 17 13 10 11 13 13 10 7 8 8 7 3 2 1 3 3 5 10 12 12 13 14 14 13 13 13 13 12 13 13 12 11 11 10 10 8 7 5 6 6 4 4 4
22 18 15 12 10 11 11 10 8 8 8 7 4 0 5 8 6 7 9 10 11 12 13 13 13 13 12 12 13 12 12 12 11 11 10 9 9 8 7 6 6 5 5 5
16 15 13 12 8 8 9 9 9 7 8 8 6 1 2 2 2 6 8 9 9 10 12 13 13 13 12 13 13 13 13 12 11 10 9 8 8 8 8 8 7 6 6 6
9 10 12 11 7 4 6 8 9 8 8 8 6 2 2 2 3 3 7 8 8 7 9 11 12 12 12 11 11 13 13 13 12 11 10 9 8 8 9 8 7 7 7 7
7 9 12 12 5 4 4 11 12 10 8 8 5 2 3 1 2 4 4 6 7 6 6 8 9 10 10 10 10 11 12 12 13 12 11 10 10 9 8 7 7 8 8 8
10 12 13 12 7 9 10 11 14 13 12 10 5 4 4 3 3 2 3 4 5 6 6 6 7 8 9 9 9 9 10 10 11 11 11 11 10 9 8 8 7 7 8 9
11 11 12 12 10 9 10 12 13 13 12 11 7 3 8 8 5 3 4 3 2 4 5 5 5 7 9 9 9 9 9 9 9 10 10 9 9 9 9 8 8 8 8 8
8 9 12 10 8 8 11 10 10 10 8 7 4 4 9 10 7 5 5 4 4 4 4 3 2 4 5 7 8 9 9 8 9 9 9 9 10 10 9 10 9 9 9 8
6 8 7 9 7 11 5 3 4 6 3 1 5 7 9 11 9 8 7 7 7 6 5 4 3 3 2 4 6 6 7 7 7 7 7 7 7 8 8 8 8 8 7 7
6 7 8 8 8 8 2 4 3 4 4 5 6 8 10 11 11 10 10 10 9 8 8 7 6 5 4 3 3 4 3 4 4 4 4 4 5 5 5 6 6 6 6 6
9 8 10 8 7 5 1 2 3 2 1 5 7 7 7 7 7 7 9 10 10 10 9 9 9 10 9 7 6 6 4 4 3 3 2 3 3 3 4 4 4 4 4 5
8 10 11 10 7 1 4 0 1 2 2 4 8 8 7 9 9 10 11 11 10 11 11 12 12 12 11 10 9 9 7 6 5 4 4 3 3 3 3 2 2 2 3 4
3 3 5 7 6 2 3 3 2 4 3 5 8 11 13 14 14 13 12 11 11 11 12 12 11 11 10 10 10 10 8 6 6 6 5 3 3 1 2 2 2 2 2 3
2 3 2 3 3 5 6 6 4 3 4 6 9 12 14 14 14 13 12 11 11 11 10 10 10 11 10 10 10 10 7 6 5 5 4 4 3 2 2 1 1 1 2 2
1 1 2 2 3 4 5 7 7 6 5 7 10 12 13 14 13 12 11 10 10 10 9 9 10 10 10 9 9 8 7 6 6 6 4 3 3 2 2 2 1 0 0 1
1 2 3 4 2 4 7 7 8 8 9 11 13 13 13 14 13 12 11 10 9 9 9 9 9 9 9 9 9 8 7 6 5 4 3 2 1 2 1 0 1 0 0 0
4 3 3 3 3 4 5 6 8 8 11 13 13 13 13 13 13 13 11 9 9 9 8 9 9 9 8 8 7 7 7 6 5 4 4 3 2 1 1 1 1 2 2 3
Wind_Direction
233 238 248 259 267 287 301 302 308 316 301 294 292 275 198 179 184 169 169 164 160 165 169 162 159 161 155 150 150 147 145 147 149 150 151 146 152 147 133 135 140 146 137 126
244 241 250 263 278 285 288 296 303 307 306 287 287 274 186 166 179 171 168 165 167 164 166 166 166 166 161 155 153 151 155 156 160 155 152 156 147 154 142 134 143 154 149 156
240 249 246 255 270 278 284 293 305 310 303 287 283 273 157 164 170 168 169 167 170 168 166 171 169 168 170 166 165 164 164 160 166 157 154 149 133 149 136 141 158 163 160 160
247 255 260 261 265 274 282 296 306 305 301 301 301 285 161 180 177 171 170 170 172 170 167 172 173 175 176 175 171 164 164 162 167 164 167 163 168 177 165 161 157 165 170 162
247 250 255 259 262 273 287 299 298 300 308 313 331 312 177 182 185 174 171 172 173 173 170 173 175 175 177 176 174 167 165 166 168 175 171 177 181 177 161 158 149 166 169 177
257 259 257 260 266 269 279 285 288 305 334 318 282 274 215 170 177 164 163 166 169 170 169 171 171 172 178 174 171 168 168 171 173 179 177 189 189 176 161 160 155 177 169 182
250 255 260 262 263 263 268 277 288 309 295 248 249 260 205 150 139 147 155 161 166 167 169 169 169 171 173 176 174 170 169 172 175 181 182 187 188 175 165 171 168 189 178 178
244 244 243 243 247 256 258 267 276 293 292 287 247 283 268 112 111 126 144 152 162 165 166 169 170 170 173 176 174 169 170 174 178 182 181 181 181 183 180 190 186 194 200 172
250 251 245 239 234 243 257 263 277 280 286 292 280 254 62 47 103 130 141 151 161 166 168 170 171 173 175 176 175 172 172 175 180 181 177 179 184 198 190 176 202 191 181 151
247 260 260 244 236 233 247 266 282 286 295 301 322 17 14 284 188 152 149 155 161 166 170 170 172 176 177 176 171 171 173 176 179 180 182 185 189 196 191 185 193 194 171 159
235 248 255 248 233 244 243 248 259 277 284 298 303 272 179 219 204 172 156 153 161 167 170 171 172 175 175 175 172 170 169 176 181 184 189 188 185 192 194 195 187 184 171 164
237 240 248 247 245 259 262 266 259 257 270 279 290 118 145 230 226 156 141 142 154 167 168 169 171 172 175 177 176 175 176 179 184 185 185 189 184 188 194 195 189 181 179 180
252 241 242 242 238 292 287 281 286 273 266 268 276 166 112 2 347 94 123 133 142 163 166 165 165 169 174 176 176 177 180 183 185 184 182 185 185 191 196 196 188 183 183 189
267 249 249 252 215 169 262 287 288 283 267 267 273 216 157 166 39 54 92 124 135 152 156 159 161 165 170 173 175 176 181 183 184 184 185 187 190 191 196 198 193 189 189 194
250 242 243 250 211 188 201 224 244 252 259 263 249 224 168 135 111 128 122 118 139 152 156 152 161 165 168 171 173 177 181 181 183 182 186 188 187 188 191 194 195 193 192 201
241 247 245 250 239 227 229 220 230 243 249 254 249 178 126 117 112 104 88 103 145 143 159 161 161 163 169 172 175 178 181 181 177 179 187 187 184 188 195 196 196 197 198 204
254 242 244 248 255 260 244 237 241 246 251 262 260 127 124 116 106 89 76 65 51 63 83 84 120 145 159 170 172 175 179 178 178 183 189 187 186 190 194 199 199 203 202 204
275 278 252 242 231 247 254 327 316 292 272 155 111 104 108 106 100 84 69 62 51 42 43 56 76 83 115 165 170 170 177 179 180 184 188 187 189 194 194 198 201 203 202 204
235 245 253 249 243 251 284 343 354 337 12 44 98 106 109 114 101 76 63 64 56 46 40 41 49 73 74 68 109 128 135 147 155 172 185 182 180 185 190 205 209 202 202 207
218 218 235 236 240 251 123 7 10 8 45 55 83 99 118 130 111 90 73 68 60 53 50 52 53 52 55 54 68 92 93 97 110 125 129 122 132 165 182 195 208 201 202 212
221 215 227 235 235 127 75 211 205 213 122 70 84 83 87 86 91 101 89 77 70 63 58 56 57 53 46 45 59 65 62 57 59 69 85 99 119 141 158 174 179 197 208 213
316 267 238 245 238 108 40 48 58 91 95 86 93 97 97 100 100 98 91 81 73 67 62 60 60 55 47 48 57 61 51 41 46 51 50 61 74 98 139 141 159 176 211 233
355 333 326 17 63 76 66 85 105 119 106 100 102 106 111 109 106 102 95 88 81 76 71 67 65 60 49 44 48 53 41 37 46 51 47 39 49 51 41 97 166 191 213 234
189 286 71 67 47 65 74 70 63 71 87 93 98 104 108 108 105 100 96 91 85 78 75 74 71 66 56 48 48 45 37 35 46 49 44 35 31 37 28 11 22 19 305 273
128 144 124 126 107 88 59 60 75 82 90 91 93 97 101 102 100 97 92 86 82 78 74 72 73 71 67 59 51 43 35 30 28 31 29 24 32 26 29 6 339 321 46 270
37 41 66 82 61 81 75 73 85 92 91 94 97 96 95 96 97 93 88 83 81 78 76 73 71 70 67 63 57 46 36 29 22 17 7 349 347 7 317 264 233 209 215 206